TimeEDT,TemperatureF,Dew PointF,Humidity,Sea Level PressureIn,VisibilityMPH,Wind Direction,Wind SpeedMPH,Gust SpeedMPH,PrecipitationIn,Events,Conditions,WindDirDegrees,DateUTC
12:53 AM,73.4,69.8,88,29.96,10.0,WNW,3.5,-,N/A,,Clear,300,2012-10-07 04:53:00
1:53 AM,71.1,66.9,87,29.96,10.0,Calm,Calm,-,N/A,,Clear,0,2012-10-07 05:53:00
2:53 AM,69.8,66.2,88,29.96,10.0,Calm,Calm,-,N/A,,Mostly Cloudy,0,2012-10-07 06:53:00
3:53 AM,71.1,66.9,87,29.94,10.0,NW,3.5,-,N/A,,Clear,320,2012-10-07 07:53:00
4:53 AM,69.1,66.0,90,29.94,10.0,Calm,Calm,-,N/A,,Clear,0,2012-10-07 08:53:00
5:53 AM,69.1,66.0,90,29.95,10.0,NNW,4.6,-,N/A,,Clear,330,2012-10-07 09:53:00
6:53 AM,70.0,64.0,81,29.97,10.0,North,6.9,-,N/A,,Partly Cloudy,350,2012-10-07 10:53:00
7:53 AM,69.1,64.0,84,29.98,10.0,North,3.5,-,N/A,,Partly Cloudy,350,2012-10-07 11:53:00
8:53 AM,71.1,64.0,78,30.00,10.0,NNW,3.5,-,N/A,,Clear,330,2012-10-07 12:53:00
9:53 AM,75.0,64.9,71,30.01,10.0,North,5.8,-,N/A,,Clear,350,2012-10-07 13:53:00
10:53 AM,79.0,64.9,62,30.01,10.0,NW,4.6,-,N/A,,Clear,320,2012-10-07 14:53:00
11:53 AM,84.9,64.0,49,30.01,10.0,NNW,5.8,-,N/A,,Clear,330,2012-10-07 15:53:00
12:53 PM,87.1,63.0,44,29.99,10.0,North,5.8,-,N/A,,Partly Cloudy,360,2012-10-07 16:53:00
1:53 PM,87.1,64.0,46,29.97,10.0,North,6.9,-,N/A,,Partly Cloudy,10,2012-10-07 17:53:00
2:53 PM,87.1,64.0,46,29.96,10.0,North,9.2,-,N/A,,Mostly Cloudy,360,2012-10-07 18:53:00
3:53 PM,88.0,64.0,45,29.95,10.0,North,10.4,-,N/A,,Scattered Clouds,350,2012-10-07 19:53:00
4:53 PM,87.1,63.0,44,29.94,10.0,NNW,10.4,-,N/A,,Scattered Clouds,330,2012-10-07 20:53:00
5:53 PM,84.9,63.0,48,29.94,10.0,NNW,9.2,-,N/A,,Partly Cloudy,340,2012-10-07 21:53:00
6:53 PM,81.0,64.9,58,29.96,10.0,North,8.1,-,N/A,,Clear,350,2012-10-07 22:53:00
7:53 PM,78.1,66.0,66,29.97,10.0,North,4.6,-,N/A,,Clear,350,2012-10-07 23:53:00
8:53 PM,75.9,66.0,71,29.98,10.0,NNW,3.5,-,N/A,,Clear,340,2012-10-08 00:53:00
9:53 PM,75.0,66.0,73,30.00,10.0,Calm,Calm,-,N/A,,Clear,0,2012-10-08 01:53:00
10:53 PM,73.9,64.9,73,30.01,10.0,North,5.8,-,N/A,,Partly Cloudy,350,2012-10-08 02:53:00
11:53 PM,73.0,64.9,76,30.02,10.0,NNW,5.8,-,N/A,,Mostly Cloudy,330,2012-10-08 03:53:00